EW2099 Weather Reports


Display with metric or nautical units.
time (UTC)temp
F
wind
direction
speed
MPH
gust
MPH
rain 1hr
in
rain 24hr
in
rain mn
in
humidity
%
barometer
mb
20260510101558 56 18 9.0 19.0 0.00 0.00 0.00 54 1015.3
20260510100056 57 32 8.0 17.0 0.00 0.00 0.00 54 1015.4
20260510094608 56 13 11.0 19.0 0.00 0.00 0.00 54 1015.4
20260510093117 56 27 9.0 21.0 0.00 0.00 0.00 56 1015.6
20260510091553 57 330 7.0 19.0 0.00 0.00 0.00 55 1015.6
20260510090054 57 13 9.0 19.0 0.00 0.00 0.00 54 1015.7
20260510084554 57 32 8.0 16.0 0.00 0.00 0.00 54 1015.7
20260510083054 57 356 8.0 22.0 0.00 0.00 0.00 53 1015.8
20260510081550 57 342 9.0 18.0 0.00 0.00 0.00 52 1015.9
20260510080050 57 18 6.0 19.0 0.00 0.00 0.00 53 1016.0
20260510074549 57 57 8.0 15.0 0.00 0.00 0.00 53 1016.0
20260510073049 57 50 8.0 15.0 0.00 0.00 0.00 53 1016.2
20260510071552 57 37 7.0 16.0 0.00 0.00 0.00 51 1016.1
20260510070044 57 44 5.0 21.0 0.00 0.00 0.00 48 1016.0
20260510064543 56 59 8.0 18.0 0.00 0.00 0.00 47 1015.9
20260510063041 56 77 9.0 18.0 0.00 0.00 0.00 47 1015.9
20260510061540 55 37 7.0 14.0 0.00 0.00 0.00 49 1015.9
20260510060035 55 10 6.0 13.0 0.00 0.00 0.00 50 1015.7
20260510054534 55 56 5.0 13.0 0.00 0.00 0.00 51 1015.7
20260510053050 55 75 7.0 14.0 0.00 0.00 0.00 52 1015.7
20260510051534 54 38 5.0 12.0 0.00 0.00 0.00 53 1015.8
20260510050030 54 37 4.0 15.0 0.00 0.00 0.00 53 1016.0
20260510044528 53 63 5.0 12.0 0.00 0.00 0.00 55 1015.9
20260510043039 53 47 6.0 11.0 0.00 0.00 0.00 57 1015.8
20260510041527 53 43 6.0 16.0 0.00 0.00 0.00 57 1015.9
20260510040034 53 53 3.0 11.0 0.00 0.00 0.00 58 1015.8
20260510034520 53 41 5.0 13.0 0.00 0.00 0.00 58 1015.9
20260510033018 54 59 6.0 12.0 0.00 0.00 0.00 58 1016.0
20260510031522 54 31 4.0 11.0 0.00 0.00 0.00 58 1016.1
20260510030015 54 104 6.0 12.0 0.00 0.00 0.00 58 1016.0
20260510024651 54 44 3.0 13.0 0.00 0.00 0.00 58 1016.0
20260510023011 54 32 3.0 12.0 0.00 0.00 0.00 55 1016.0
20260510021521 54 77 6.0 14.0 0.00 0.00 0.00 56 1016.1
20260510020005 54 352 3.0 10.0 0.00 0.00 0.00 56 1016.2
20260510014506 54 58 5.0 9.0 0.00 0.00 0.00 57 1016.3
20260510013001 54 32 2.0 11.0 0.00 0.00 0.00 57 1016.4
20260510011558 54 85 5.0 10.0 0.00 0.00 0.00 58 1016.3
20260510010055 54 72 5.0 11.0 0.00 0.00 0.00 58 1016.6
20260510004556 55 49 4.0 13.0 0.00 0.00 0.00 58 1016.6
20260510003052 55 68 5.0 10.0 0.00 0.00 0.00 58 1016.6
20260510001549 55 59 5.0 10.0 0.00 0.00 0.00 58 1016.6
20260510000050 55 36 3.0 10.0 0.00 0.00 0.00 58 1016.9
20260509234543 55 20 2.0 9.0 0.00 0.00 0.00 57 1017.0
20260509233039 55 51 3.0 8.0 0.00 0.00 0.00 57 1017.1
20260509231540 55 34 4.0 10.0 0.00 0.00 0.00 56 1017.0
20260509230036 55 96 4.0 11.0 0.00 0.00 0.00 55 1017.3
20260509224533 55 39 3.0 10.0 0.00 0.00 0.00 55 1017.1
20260509223032 55 63 4.0 11.0 0.00 0.00 0.00 55 1017.0
20260509221529 55 82 3.0 10.0 0.00 0.00 0.00 55 1017.0
20260509220026 55 59 2.0 9.0 0.00 0.00 0.00 55 1017.0
20260509214525 55 1 3.0 10.0 0.00 0.00 0.00 55 1017.0
20260509213031 55 44 5.0 12.0 0.00 0.00 0.00 55 1017.0
20260509211524 55 56 6.0 11.0 0.00 0.00 0.00 55 1017.0
20260509210024 55 39 5.0 13.0 0.00 0.00 0.00 56 1017.1
20260509204523 55 33 5.0 11.0 0.00 0.00 0.00 56 1017.0
20260509203024 55 2 5.0 9.0 0.00 0.00 0.00 56 1017.1
20260509201522 55 75 2.0 8.0 0.00 0.00 0.00 57 1017.0
20260509200021 55 39 4.0 11.0 0.00 0.00 0.00 57 1016.9
20260509194521 56 20 2.0 6.0 0.00 0.00 0.00 55 1016.8
20260509193028 56 39 3.0 8.0 0.00 0.00 0.00 55 1016.8
20260509191532 56 56 3.0 12.0 0.00 0.00 0.00 55 1016.6
20260509190023 57 49 3.0 9.0 0.00 0.00 0.00 54 1016.8
20260509184532 58 23 3.0 7.0 0.00 0.00 0.00 50 1016.7
20260509183028 58 75 2.0 7.0 0.00 0.00 0.00 50 1016.7
20260509181518 58 27 3.0 11.0 0.00 0.00 0.00 52 1016.7
20260509180019 58 52 5.0 10.0 0.00 0.00 0.00 52 1016.6
20260509174522 58 352 5.0 14.0 0.00 0.00 0.00 52 1016.6
20260509173018 59 6 5.0 13.0 0.00 0.00 0.00 51 1016.5
20260509171516 60 33 4.0 13.0 0.00 0.00 0.00 50 1016.5
20260509170022 60 11 6.0 13.0 0.00 0.00 0.00 49 1016.5
20260509164515 61 51 7.0 14.0 0.00 0.00 0.00 49 1016.7
20260509163026 61 58 6.0 15.0 0.00 0.00 0.00 51 1016.8
20260509161514 61 75 7.0 15.0 0.00 0.00 0.00 49 1016.9
20260509160015 62 51 6.0 13.0 0.00 0.00 0.00 47 1016.9
20260509154512 62 3 7.0 14.0 0.00 0.00 0.00 47 1016.9
20260509153017 62 53 6.0 14.0 0.00 0.00 0.00 48 1016.7
20260509151512 62 23 8.0 13.0 0.00 0.00 0.00 49 1016.8
20260509150011 62 45 6.0 13.0 0.00 0.00 0.00 48 1016.8
20260509144509 62 353 7.0 16.0 0.00 0.00 0.00 49 1016.7
20260509143009 62 64 6.0 14.0 0.00 0.00 0.00 50 1016.9
20260509141507 62 59 3.0 14.0 0.00 0.00 0.00 51 1016.9
20260509140011 63 49 5.0 14.0 0.00 0.00 0.00 51 1017.0
20260509134506 63 19 6.0 14.0 0.00 0.00 0.00 50 1016.9
20260509133004 63 345 6.0 14.0 0.00 0.00 0.00 49 1017.1
20260509131504 65 44 5.0 12.0 0.00 0.00 0.00 47 1017.2
20260509130002 65 54 5.0 13.0 0.00 0.00 0.00 45 1017.2
20260509124601 65 49 5.0 11.0 0.00 0.00 0.00 44 1017.3
20260509123058 65 15 4.0 16.0 0.00 0.00 0.00 46 1017.4
20260509121618 65 61 5.0 13.0 0.00 0.00 0.00 47 1017.6
20260509120055 64 33 5.0 13.0 0.00 0.00 0.00 47 1017.7
20260509114559 63 39 6.0 13.0 0.00 0.00 0.00 47 1017.8
20260509113057 64 21 4.0 11.0 0.00 0.00 0.00 48 1018.0
20260509111549 63 32 8.0 13.0 0.00 0.00 0.00 47 1018.2
20260509110049 63 73 3.0 12.0 0.00 0.00 0.00 48 1018.1
20260509104550 63 66 5.0 12.0 0.00 0.00 0.00 48 1018.2
20260509103058 64 25 4.0 10.0 0.00 0.00 0.00 47 1018.2